sat.trackr.live / text

‹ back to catalog

JILIN-1 GAOFEN 03D12

NORAD 51841 · 2022-019T

PAYLOAD ACTIVE UNKNOWN

§ Identity

Operator
Country
PRC
Launch date
2022-02-27
Launch site
WSC
Launch vehicle
Mass (kg)
RCS (m²)

External: N2YO · Heavens-Above · Gunter

§ Orbital elements

Epoch: 2026-05-25T00:29:55.775616Z

Period
89.90 min
Inclination
97.3581°
Eccentricity
0.0007775
Mean motion
16.01791082 rev/d
Perigee alt
264.3 km
Apogee alt
274.6 km
Semi-major
6,647.6 km
B*
1.0413e-3
RAAN
241.6153°
Arg perigee
226.5467°
Mean anomaly
133.5166°
Rev number
23,643

§ Raw data

JILIN-1 GAOFEN 03D121 51841U 22019T   26145.02078444  .00584915  15795-3  10413-2 0  99932 51841  97.3581 241.6153 0007775 226.5467 133.5166 16.01791082236432

JSON: /api/v1/satellites/51841 · /tle

For live sub-satellite position, see the globe view (requires WebGL).

§ Visibility from observer

Set your observer location to see the next 7 days of passes ≥ 10°. The values pass through the URL so the page stays shareable.

No JS? Fill the form by hand. The geolocation button needs JavaScript.

§ Radio — SatNOGS DB

ModeDescriptionDownlinkUplink
FM Mode U 401.734 MHz

1 transmitter · refreshed weekly from db.satnogs.org